This demonstration page uses our WeatherBlox Daily Observations layout. Learn more.

Hourly Observations for May 7, 2019

Temp ( °F °C ) Dew Point ( °F °C ) Humidity (%) Winds ( mph kmh ) Pressure ( in mb ) Visibility ( mi km ) Precip ( " mm )
12:54 am 00:54 Cloudy 53 11.7 47 8.3 80 80 NNE 10 17 30.09 1019 10 16.09344 0 0
1:07 am 01:07 Cloudy 53 11.7 48 8.9 83 83 NNE 10 17 30.12 1020 10 16.09344 0 0
1:54 am 01:54 Cloudy 53 11.7 48 8.9 83 83 NNE 12 19 30.09 1019 10 16.09344 0 0
2:25 am 02:25 Cloudy 53 11.7 46 7.8 77 77 NNE 14 22 30.09 1019 10 16.09344 0 0
2:54 am 02:54 Cloudy 52 11.1 44 6.7 75 75 NNE 13 20 30.09 1019 10 16.09344 0 0
3:09 am 03:09 Cloudy 52 11.1 43 6.1 72 72 NE 14 22 30.15 1021 10 16.09344 0 0
3:21 am 03:21 Cloudy 52 11.1 42 5.6 69 69 NE 15 24 30.15 1021 10 16.09344 0 0
3:54 am 03:54 Cloudy 50 10 39 3.9 66 66 NE 16 26 30.12 1020 10 16.09344 0 0
4:54 am 04:54 Cloudy with Light Rain 49 9.4 40 4.4 71 71 NNE 13 20 30.12 1020 10 16.09344 0.001 0.001
5:54 am 05:54 Cloudy 48 8.9 40 4.4 74 74 NNE 14 22 30.12 1020 10 16.09344 0.001 0.001
6:54 am 06:54 Cloudy with Rain 46 7.8 40 4.4 79 79 NE 14 22 30.15 1021 6 9.656064 0.02 0.508
7:34 am 07:34 Cloudy with Rain 45 7.2 42 5.6 90 90 NE 10 17 30.18 1022 2.5 4.02336 0.05 1.27
7:47 am 07:47 Cloudy with Light Rain 45 7.2 42 5.6 90 90 NNE 12 19 30.21 1023 4 6.437376 0.06 1.524
7:54 am 07:54 Cloudy with Light Rain 45 7.2 42 5.6 90 90 NE 10 17 30.15 1021 4 6.437376 0.07 1.778
8:16 am 08:16 Cloudy with Light Rain 45 7.2 42 5.6 90 90 NE 10 17 30.21 1023 4 6.437376 0.01 0.254
8:30 am 08:30 Cloudy with Light Rain 45 7.2 42 5.6 90 90 NE 12 19 30.21 1023 3 4.828032 0.01 0.254
8:41 am 08:41 Cloudy with Light Rain 45 7.2 43 6.1 93 93 NE 14 22 30.21 1023 4 6.437376 0.01 0.254
8:54 am 08:54 Cloudy with Mist and Fog 45 7.2 42 5.6 90 90 NE 12 19 30.18 1022 5 8.04672 0.01 0.254
9:54 am 09:54 Cloudy 46 7.8 43 6.1 89 89 NE 15 24 30.15 1021 10 16.09344 0 0
10:20 am 10:20 Cloudy 46 7.8 43 6.1 89 89 NE 10 17 30.21 1023 10 16.09344 0 0
10:54 am 10:54 Cloudy 47 8.3 44 6.7 90 90 NE 10 17 30.18 1022 10 16.09344 0 0
11:54 am 11:54 Cloudy 48 8.9 44 6.7 86 86 ENE 12 19 30.18 1022 10 16.09344 0 0
12:30 pm 12:30 Cloudy 50 10 45 7.2 83 83 ENE 9 15 30.21 1023 10 16.09344 0 0
12:54 pm 12:54 Cloudy 50 10 45 7.2 83 83 ENE 14 22 30.15 1021 10 16.09344 0 0
1:54 pm 13:54 Cloudy 52 11.1 46 7.8 80 80 ENE 15 24 30.12 1020 10 16.09344 0 0
2:54 pm 14:54 Cloudy 54 12.2 48 8.9 80 80 NE 10 17 30.09 1019 10 16.09344 0 0
3:54 pm 15:54 Cloudy 56 13.3 50 10 81 81 ENE 14 22 30.06 1018 10 16.09344 0 0
4:36 pm 16:36 Cloudy 57 13.9 50 10 78 78 ENE 17 28 30.06 1018 10 16.09344 0 0
4:54 pm 16:54 Cloudy 57 13.9 51 10.6 81 81 E 10 17 30.06 1018 10 16.09344 0 0
5:54 pm 17:54 Cloudy 57 13.9 51 10.6 81 81 E 9 15 30.03 1017 10 16.09344 0 0
6:54 pm 18:54 Cloudy 56 13.3 53 11.7 90 90 E 10 17 30.03 1017 7 11.265408 0.001 0.001
7:54 pm 19:54 Cloudy 56 13.3 52 11.1 87 87 E 12 19 30 1016 7 11.265408 0 0
8:39 pm 20:39 Cloudy with Mist and Fog 56 13.3 52 11.1 87 87 E 9 15 30 1016 6 9.656064 0 0
8:54 pm 20:54 Cloudy 56 13.3 53 11.7 90 90 E 10 17 30 1016 8 12.874752 0 0
9:54 pm 21:54 Cloudy 56 13.3 52 11.1 87 87 ESE 13 20 29.97 1015 10 16.09344 0 0
10:54 pm 22:54 Cloudy 55 12.8 52 11.1 90 90 E 9 15 29.97 1015 9 14.484096 0 0
11:54 pm 23:54 Cloudy with Light Rain 54 12.2 52 11.1 93 93 ESE 8 13 29.94 1014 5 8.04672 0.001 0.001

Powered by AerisWeather